Ruidoso, NM

5:58 AM MST on November 12, 2019 (GMT -0700)
Sierra Blanca Regional

Weather History for KSRR - October, 2019

Change the Weather History Date:

Sunday, October 20, 2019

  Actual Average Record
Temperature  
Mean Temperature 52 °F -  
Max Temperature 64 °F 62 °F 80 °F (2007)
Min Temperature 41 °F 40 °F 35 °F (1999)
Degree Days  
Heating Degree Days 12    
Growing Degree Days 2 (Base 50)    
Moisture  
Dew Point 16 °F    
Average Humidity 23    
Maximum Humidity 37    
Minimum Humidity 9    
Precipitation  
Precipitation 0.00 in - - ()
Sea Level Pressure  
Sea Level Pressure 29.97 in    
Wind  
Wind Speed 14 mph ()    
Max Wind Speed 30 mph    
Max Gust Speed 43 mph    
Visibility 10.0 miles    
Events      
Averages and records for this station are not official NWS values.
T = Trace of Precipitation, MM = Missing Value Source: Averaged Metar Reports

Daily Weather History Graph

Daily Weather History Graph

Search for Another Location

Airport or City:

Astronomy

Oct. 20, 2019 Rise Set
Actual Time 7:10 AM MDT 6:22 PM MDT
Civil Twilight 6:45 AM MDT 6:47 PM MDT
Nautical Twilight 6:16 AM MDT 7:16 PM MDT
Astronomical Twilight 5:47 AM MDT 7:45 PM MDT
Moon 11:45 PM MDT (10/20) 1:29 PM MDT (10/20)
Length of Visible Light 12h 02m
Length of Day
11h 12m
Waning Gibbous, 58% of the Moon is Illuminated
Oct 20
Waning Gibbous
Oct 21
Last Quarter
Oct 27
New
Nov 4
First Quarter
Nov 12
Full

Hourly Weather History & Observations

Time (MDT) Temp. Windchill Dew Point Humidity Pressure Visibility Wind Dir Wind Speed Gust Speed Precip Events Conditions
12:15 AM 50.0 °F - 19.4 °F 30% 29.97 in 10.0 mi WSW 5.8 mph - N/A   Clear
12:35 AM 51.8 °F - 19.4 °F 28% 29.96 in 10.0 mi WSW 10.4 mph - N/A   Clear
12:55 AM 53.6 °F - 19.4 °F 26% 29.95 in 10.0 mi WSW 12.7 mph 20.7 mph N/A   Clear
1:15 AM 55.4 °F - 19.4 °F 25% 29.95 in 10.0 mi WSW 13.8 mph - N/A   Clear
1:35 AM 55.4 °F - 19.4 °F 25% 29.95 in 10.0 mi NNW 10.4 mph 16.1 mph N/A   Clear
1:55 AM 50.0 °F - 19.4 °F 30% 29.95 in 10.0 mi North 4.6 mph - N/A   Clear
2:15 AM 48.2 °F - 19.4 °F 32% 29.95 in 10.0 mi West 5.8 mph - N/A   Clear
2:35 AM 50.0 °F - 19.4 °F 30% 29.94 in 10.0 mi WNW 5.8 mph - N/A   Clear
2:55 AM 55.4 °F - 19.4 °F 25% 29.92 in 10.0 mi WSW 25.3 mph 32.2 mph N/A   Clear
3:15 AM 55.4 °F - 19.4 °F 25% 29.90 in 10.0 mi SW 29.9 mph 38.0 mph N/A   Clear
3:35 AM 55.4 °F - 23.0 °F 29% 29.91 in 10.0 mi WSW 26.5 mph 32.2 mph N/A   Clear
3:55 AM 55.4 °F - 23.0 °F 29% 29.90 in 10.0 mi SW 25.3 mph 36.8 mph N/A   Clear
4:15 AM 55.4 °F - 23.0 °F 29% 29.91 in 10.0 mi WSW 24.2 mph 32.2 mph N/A   Clear
4:35 AM 55.4 °F - 23.0 °F 29% 29.91 in 10.0 mi WSW 21.9 mph 28.8 mph N/A   Clear
4:55 AM 53.6 °F - 23.0 °F 30% 29.92 in 10.0 mi WSW 19.6 mph 28.8 mph N/A   Clear
5:15 AM 53.6 °F - 21.2 °F 28% 29.92 in 10.0 mi WSW 23.0 mph 29.9 mph N/A   Clear
5:35 AM 53.6 °F - 19.4 °F 26% 29.92 in 10.0 mi SW 13.8 mph 25.3 mph N/A   Clear
5:55 AM 53.6 °F - 19.4 °F 26% 29.92 in 10.0 mi SSW 12.7 mph 23.0 mph N/A   Clear
6:15 AM 51.8 °F - 19.4 °F 28% 29.93 in 10.0 mi SSW 11.5 mph - N/A   Clear
6:35 AM 50.0 °F - 23.0 °F 35% 29.93 in 10.0 mi SSW 9.2 mph - N/A   Clear
6:55 AM 50.0 °F - 23.0 °F 35% 29.94 in 10.0 mi SSW 8.1 mph - N/A   Clear
7:15 AM 48.2 °F - 23.0 °F 37% 29.94 in 10.0 mi SW 12.7 mph - N/A   Clear
7:35 AM 50.0 °F - 23.0 °F 35% 29.94 in 10.0 mi SW 15.0 mph 20.7 mph N/A   Clear
7:55 AM 53.6 °F - 24.8 °F 33% 29.94 in 10.0 mi SW 17.3 mph 23.0 mph N/A   Clear
8:15 AM 53.6 °F - 24.8 °F 33% 29.94 in 10.0 mi SW 16.1 mph 20.7 mph N/A   Clear
8:35 AM 55.4 °F - 24.8 °F 31% 29.95 in 10.0 mi WSW 12.7 mph 17.3 mph N/A   Clear
8:55 AM 57.2 °F - 23.0 °F 27% 29.96 in 10.0 mi WNW 8.1 mph - N/A   Clear
9:15 AM 59.0 °F - 17.6 °F 20% 29.96 in 10.0 mi WNW 13.8 mph 19.6 mph N/A   Clear
9:35 AM 60.8 °F - 17.6 °F 19% 29.97 in 10.0 mi WNW 15.0 mph 24.2 mph N/A   Clear
9:55 AM 62.6 °F - 23.0 °F 22% 29.97 in 10.0 mi SW 16.1 mph 21.9 mph N/A   Clear
10:15 AM 62.6 °F - 21.2 °F 20% 29.96 in 10.0 mi SW 21.9 mph 26.5 mph N/A   Clear
10:35 AM 60.8 °F - 24.8 °F 25% 29.96 in 10.0 mi SW 16.1 mph 26.5 mph N/A   Clear
10:55 AM 62.6 °F - 15.8 °F 16% 29.97 in 10.0 mi WNW 17.3 mph 27.6 mph N/A   Clear
11:15 AM 62.6 °F - 17.6 °F 18% 29.96 in 10.0 mi WNW 18.4 mph 23.0 mph N/A   Clear
11:35 AM 64.4 °F - 17.6 °F 16% 29.96 in 10.0 mi West 18.4 mph 24.2 mph N/A   Clear
11:55 AM 62.6 °F - 15.8 °F 16% 29.96 in 10.0 mi West 21.9 mph 27.6 mph N/A   Clear
12:15 PM 62.6 °F - 15.8 °F 16% 29.96 in 10.0 mi West 19.6 mph 26.5 mph N/A   Clear
12:35 PM 62.6 °F - 15.8 °F 16% 29.95 in 10.0 mi West 20.7 mph 32.2 mph N/A   Clear
12:55 PM 62.6 °F - 15.8 °F 16% 29.95 in 10.0 mi WNW 19.6 mph 39.1 mph N/A   Clear
1:15 PM 62.6 °F - 17.6 °F 18% 29.95 in 10.0 mi West 15.0 mph 29.9 mph N/A   Clear
1:35 PM 62.6 °F - 19.4 °F 19% 29.94 in 10.0 mi West 21.9 mph 26.5 mph N/A   Clear
1:55 PM 62.6 °F - 17.6 °F 18% 29.95 in 10.0 mi West 15.0 mph 28.8 mph N/A   Clear
2:15 PM 62.6 °F - 15.8 °F 16% 29.94 in 10.0 mi West 19.6 mph 29.9 mph N/A   Clear
2:35 PM 62.6 °F - 14.0 °F 15% 29.93 in 10.0 mi WNW 19.6 mph 34.5 mph N/A   Clear
2:55 PM 62.6 °F - 14.0 °F 15% 29.93 in 10.0 mi WNW 24.2 mph 36.8 mph N/A   Clear
3:15 PM 64.4 °F - 14.0 °F 14% 29.93 in 10.0 mi West 18.4 mph 32.2 mph N/A   Clear
3:35 PM 62.6 °F - 12.2 °F 14% 29.93 in 10.0 mi WNW 21.9 mph 33.4 mph N/A   Clear
3:55 PM 64.4 °F - 14.0 °F 14% 29.93 in 10.0 mi NW 11.5 mph 27.6 mph N/A   Clear
4:15 PM 62.6 °F - 12.2 °F 14% 29.94 in 10.0 mi WNW 23.0 mph 32.2 mph N/A   Clear
4:35 PM 62.6 °F - 8.6 °F 12% 29.94 in 10.0 mi WNW 26.5 mph 36.8 mph N/A   Clear
4:55 PM 62.6 °F - 3.2 °F 9% 29.94 in 10.0 mi WNW 27.6 mph 42.6 mph N/A   Clear
5:15 PM 60.8 °F - 5.0 °F 11% 29.95 in 10.0 mi West 20.7 mph 33.4 mph N/A   Clear
5:35 PM 59.0 °F - 6.8 °F 13% 29.96 in 10.0 mi NW 16.1 mph 27.6 mph N/A   Clear
5:55 PM 59.0 °F - 5.0 °F 12% 29.97 in 10.0 mi NW 15.0 mph 29.9 mph N/A   Clear
6:15 PM 57.2 °F - 5.0 °F 12% 29.98 in 10.0 mi NW 17.3 mph 28.8 mph N/A   Clear
6:35 PM 55.4 °F - 5.0 °F 13% 29.98 in 10.0 mi NW 15.0 mph 26.5 mph N/A   Clear
6:55 PM 55.4 °F - 5.0 °F 13% 29.99 in 10.0 mi NW 13.8 mph 24.2 mph N/A   Clear
7:15 PM 53.6 °F - 6.8 °F 15% 30.00 in 10.0 mi WNW 17.3 mph 27.6 mph N/A   Clear
7:35 PM 53.6 °F - 6.8 °F 15% 30.02 in 10.0 mi WNW 15.0 mph 24.2 mph N/A   Clear
7:55 PM 51.8 °F - 10.4 °F 19% 30.02 in 10.0 mi WNW 15.0 mph 21.9 mph N/A   Clear
8:15 PM 50.0 °F - 10.4 °F 20% 30.03 in 10.0 mi WNW 15.0 mph 20.7 mph N/A   Clear
8:35 PM 50.0 °F - 12.2 °F 22% 30.03 in 10.0 mi NW 10.4 mph 20.7 mph N/A   Clear
8:55 PM 48.2 °F - 12.2 °F 24% 30.04 in 10.0 mi NW 12.7 mph 19.6 mph N/A   Clear
9:15 PM 48.2 °F - 14.0 °F 25% 30.05 in 10.0 mi NW 9.2 mph 19.6 mph N/A   Clear
9:35 PM 46.4 °F 41.1 °F 14.0 °F 27% 30.05 in 10.0 mi NW 11.5 mph 19.6 mph N/A   Clear
9:55 PM 46.4 °F 41.1 °F 12.2 °F 25% 30.06 in 10.0 mi NW 11.5 mph 18.4 mph N/A   Clear
10:15 PM 44.6 °F 41.4 °F 12.2 °F 27% 30.07 in 10.0 mi North 5.8 mph - N/A   Clear
10:35 PM 41.0 °F 37.1 °F 12.2 °F 31% 30.07 in 10.0 mi NW 5.8 mph - N/A   Clear
10:55 PM 41.0 °F 34.7 °F 10.4 °F 29% 30.08 in 10.0 mi North 10.4 mph - N/A   Clear
11:15 PM 41.0 °F 35.2 °F 8.6 °F 26% 30.08 in 10.0 mi NNW 9.2 mph - N/A   Clear
11:35 PM 41.0 °F 35.2 °F 6.8 °F 24% 30.08 in 10.0 mi NW 9.2 mph - N/A   Clear
11:55 PM 41.0 °F 33.9 °F 5.0 °F 23% 30.08 in 10.0 mi NW 12.7 mph - N/A   Clear